Location: Peterborough
(44.3091°N, 78.3197°W)
Time: 21:28:22
(UTC-04:00)

Envisat - Pass Details

Date: 23 April 2026
Orbit: 761 x 762 km, 98.4° (Epoch: 15 May)

Event Time Altitude Azimuth Distance (km) Brightness Sun altitude
Rises 02:16:38 0° 36° (NE) 3,231 7.3 -31.2°
Reaches altitude 10° 02:21:24 10° 77° (ENE) 2,297 5.8 -31.0°
Maximum altitude 02:22:15 10° 87° (E) 2,268 5.7 -30.9°
Drops below altitude 10° 02:23:06 10° 97° (E) 2,294 5.6 -30.9°
Enters shadow 02:23:38 - 103° (ESE) 2,336 5.6 -30.8°
